Flag for Germany Weather past 2 weeks in Reutlingen, Baden-Württemberg, Germany

Now
43 °F

Partly sunny.


Feels Like: 36 °F
Forecast: 33 / 44 °F
Wind: 14 mph from Southwest

Location: Stuttgart-Echterdingen

Current Time: Dec 20, 2014 at 4:12:47 PM

Latest Report: Dec 20, 2014 at 3:50 PM


Visibility: N/A

Pressure: 30.21 "Hg

Humidity: 66%

Dew point: 32 °F

Location of ReutlingenLocation

Historic Weather in Reutlingen — Graph

°F

Reutlingen temperature yesterday

Maximum temperature yesterday: 54 °F (at 12:20 AM)
Minimum temperature yesterday: 46 °F (at 11:20 PM)
Average temperature yesterday: 50 °F

Past Weeks' High & Low Weather Summary

 TemperatureHumidityPressure
High54 °F (Dec 13, 3:20 PM)100% (Dec 5, 8:50 PM)30.42 "Hg (Dec 5, 8:50 PM)
Low28 °F (Dec 10, 3:20 AM)58% (Dec 12, 12:50 PM)29.74 "Hg (Dec 12, 4:50 PM)
Average42 °F85%30.05 "Hg
* Reported Dec 5 2:20 PM — Dec 20 2:50 PM, Reutlingen, Weather by CustomWeather, © 2014

Note: Actual official high and low records may vary slightly from our data, if they occured in-between our weather recording intervals... More about our weather records

Advertising

Reutlingen weather history for previous 24 hours

 ConditionsComfort  
Time TempWeatherWind HumidityBarometerVisibility
2:50 PM
Dec 20
43 °FBroken clouds.13 mph66%30.21 "HgN/A
2:20 PM43 °FPartly sunny.13 mph66%30.21 "HgN/A
1:50 PM43 °FPartly sunny.10 mph66%30.24 "HgN/A
1:20 PM43 °FPartly sunny.9 mph66%30.24 "HgN/A
12:20 PM43 °FPartly sunny.9 mph66%30.24 "HgN/A
11:50 AM43 °FPartly sunny.9 mph66%30.27 "HgN/A
11:20 AM43 °FPartly sunny.9 mph66%30.27 "HgN/A
10:50 AM41 °FPartly sunny.7 mph76%30.30 "HgN/A
10:20 AM41 °FBroken clouds.7 mph76%30.30 "HgN/A
9:50 AM39 °FBroken clouds.6 mph81%30.30 "HgN/A
9:20 AM39 °FScattered clouds.6 mph75%30.30 "HgN/A
8:50 AM37 °FScattered clouds.6 mph81%30.27 "HgN/A
8:20 AM37 °FScattered clouds.6 mph81%30.27 "HgN/A
7:50 AM37 °FPassing clouds.3 mph81%30.27 "HgN/A
7:20 AM37 °FPassing clouds.3 mph81%30.27 "HgN/A
6:50 AM39 °FPassing clouds.13 mph75%30.27 "HgN/A
6:20 AM41 °FPassing clouds.14 mph76%30.27 "HgN/A
5:50 AM37 °FPassing clouds.5 mph93%30.27 "HgN/A
5:20 AM41 °FPassing clouds.2 mph81%30.24 "HgN/A
4:50 AM39 °FPassing clouds.6 mph87%30.24 "HgN/A
4:20 AM41 °FPassing clouds.7 mph81%30.24 "HgN/A
3:50 AM43 °FPassing clouds.6 mph81%30.24 "HgN/A
3:20 AM43 °FPassing clouds.6 mph81%30.24 "HgN/A
2:50 AM45 °FPassing clouds.5 mph76%30.24 "HgN/A
2:20 AM45 °FPassing clouds.5 mph76%30.21 "HgN/A
1:50 AM43 °FPassing clouds.9 mph81%30.21 "HgN/A
1:20 AM45 °FPassing clouds.12 mph81%30.21 "HgN/A
12:50 AM46 °FPartly cloudy.18 mph82%30.21 "HgN/A
12:20 AM46 °FPartly cloudy.9 mph87%30.18 "HgN/A
11:50 PM
Dec 19
46 °FPassing clouds.14 mph87%30.18 "HgN/A
11:20 PM46 °FPassing clouds.13 mph87%30.15 "HgN/A
10:50 PM48 °FLight rain. Partly cloudy.13 mph82%30.12 "HgN/A
10:20 PM48 °FLight rain. Passing clouds.9 mph87%30.12 "HgN/A
9:50 PM48 °FRain. Mostly cloudy.15 mph87%30.12 "HgN/A
9:20 PM48 °FRain. Mostly cloudy.9 mph94%30.09 "HgN/A
8:50 PM48 °FRain. Partly cloudy.12 mph87%30.09 "HgN/A
8:20 PM50 °FLight rain. Partly cloudy.14 mph82%30.07 "HgN/A
7:50 PM50 °FLight rain. Passing clouds.13 mph82%30.04 "HgN/A
7:20 PM50 °FPassing clouds.14 mph82%30.04 "HgN/A
6:50 PM50 °FPartly cloudy.13 mph82%30.04 "HgN/A
6:20 PM50 °FPartly cloudy.12 mph82%30.04 "HgN/A
5:50 PM50 °FPassing clouds.14 mph82%30.04 "HgN/A
5:20 PM50 °FLight rain. Passing clouds.14 mph82%30.04 "HgN/A
4:50 PM50 °FPassing clouds.14 mph82%30.04 "HgN/A
4:20 PM50 °FBroken clouds.13 mph76%30.04 "HgN/A
Weather by CustomWeather, © 2014

See weather overviewHow to use our weather pages